Wind_Speed
18 16 15 15 15 15 16 16 14 11 10 10 11 12 14 15 16 17 17 18 17 17 16 16 17 16 13 10 8 6 6 7 7 8 8 9 11 13 14 14 14 13 12 12
19 17 17 18 17 16 16 16 14 11 10 12 14 14 15 17 18 18 16 16 15 16 15 15 15 13 10 9 7 6 8 7 7 9 10 11 12 13 14 15 15 14 13 13
20 19 20 19 18 17 17 15 13 12 12 15 17 16 16 17 18 16 13 13 14 15 14 14 13 11 9 8 7 5 6 7 8 9 10 13 13 13 14 16 15 14 14 14
21 20 21 19 18 18 17 14 13 14 16 17 18 18 17 18 18 15 13 12 13 13 13 13 12 10 9 8 7 5 5 8 9 9 10 13 13 14 14 17 16 15 15 15
21 21 21 20 18 17 16 15 15 17 18 18 18 19 17 19 18 15 12 11 10 11 11 11 11 10 9 8 7 6 6 7 8 8 10 13 14 15 15 16 16 15 16 15
22 23 22 21 20 18 16 16 18 18 18 17 16 17 16 18 16 15 11 9 8 9 10 11 10 10 9 7 6 5 3 6 8 9 11 13 15 15 15 16 15 15 16 16
23 22 21 21 21 18 17 17 18 18 17 14 14 15 15 14 14 12 10 8 8 8 9 10 10 9 8 6 5 5 3 5 7 9 10 13 15 15 15 16 17 16 17 17
23 20 19 19 18 16 16 18 18 18 16 14 14 14 13 11 12 11 9 8 8 8 8 9 9 8 8 6 5 4 3 4 6 9 10 11 15 16 16 16 18 18 18 18
21 20 20 19 16 15 15 17 16 17 17 17 15 14 13 12 11 11 10 7 7 7 7 7 7 7 7 6 4 4 4 4 6 8 9 11 14 16 17 17 18 19 19 19
21 21 21 20 19 16 15 15 17 19 19 18 17 14 13 13 12 11 9 8 6 7 7 7 7 6 6 6 5 4 4 4 5 8 8 11 13 15 17 17 18 19 20 20
21 22 21 21 20 17 16 17 18 19 20 20 19 17 15 15 13 12 10 9 8 8 8 7 7 6 5 5 5 4 4 5 6 7 9 11 12 14 16 18 18 19 21 21
21 23 24 22 21 19 19 18 19 20 20 20 21 19 17 16 15 13 12 9 9 9 8 8 6 5 5 5 5 5 4 5 6 7 8 10 12 14 15 17 18 18 19 20
25 26 26 25 24 23 22 21 21 21 20 21 21 19 18 18 18 16 14 11 10 9 9 9 7 7 6 6 6 6 6 6 6 7 8 9 11 13 14 16 17 18 19 20
28 28 28 27 26 26 25 25 24 23 23 23 22 21 20 20 19 19 17 15 14 12 12 11 9 8 7 7 8 8 8 8 8 8 9 9 10 12 14 15 16 17 18 19
32 32 30 29 29 29 28 28 27 27 27 26 25 25 23 22 21 21 20 18 17 14 13 12 12 11 9 9 9 9 9 8 9 9 10 11 11 12 14 15 16 16 17 18
35 34 33 31 31 31 30 30 30 30 30 29 29 29 26 25 24 22 21 20 18 17 15 15 14 13 12 11 11 11 11 10 10 10 11 12 11 12 13 15 16 17 17 18
38 36 35 35 34 33 33 32 33 33 33 31 30 30 30 29 27 25 23 23 21 20 19 16 16 16 15 13 14 13 12 12 12 12 12 12 12 12 13 14 16 17 18 19
39 38 36 36 36 37 36 35 35 35 34 33 32 31 30 29 28 27 26 26 24 23 20 19 18 18 17 16 16 15 14 14 14 13 14 14 14 14 14 15 17 18 19 19
41 38 37 35 35 35 36 36 35 36 36 35 33 31 30 30 29 29 28 28 27 25 24 22 21 20 19 19 18 17 17 16 16 16 16 16 16 16 16 17 18 18 19 20
40 39 38 35 34 34 33 34 36 36 36 35 34 32 31 31 31 30 29 29 27 27 26 24 22 22 20 19 19 19 19 19 18 18 18 17 17 17 17 18 19 19 20 21
39 37 36 35 34 33 31 31 33 35 35 33 33 33 32 33 32 31 30 30 29 29 27 26 26 24 23 22 22 22 21 20 20 19 19 18 18 19 20 20 20 21 21 22
34 34 33 33 33 32 30 30 31 33 33 33 32 32 31 31 30 30 29 29 30 30 29 29 27 25 24 23 23 22 22 22 21 19 18 18 20 19 19 21 22 22 23 23
33 33 32 32 31 30 29 29 31 32 32 32 32 32 30 29 28 29 29 30 29 29 29 28 26 25 25 24 23 23 22 22 21 21 21 22 21 22 23 22 22 22 24 24
32 31 31 31 30 29 28 28 29 30 30 31 31 29 29 28 28 28 28 28 28 27 27 26 25 24 24 24 24 24 24 23 22 23 23 23 23 23 23 25 25 25 25 26
31 29 29 29 29 27 27 27 27 27 28 27 27 27 27 28 28 28 27 26 26 25 24 23 23 22 21 21 22 22 22 22 22 22 22 23 24 24 25 26 26 26 27 28
27 28 27 26 25 26 25 26 26 25 25 25 25 25 25 25 25 24 24 24 23 23 22 23 23 22 21 21 21 21 22 23 23 23 23 23 24 25 26 27 27 28 29 30
Wind_Direction
262 267 268 263 258 254 258 256 254 254 255 264 272 275 289 297 304 313 320 323 329 331 331 332 331 330 328 322 313 296 261 246 244 225 210 202 200 200 198 196 197 198 198 198
259 262 260 259 258 255 258 259 258 252 255 265 268 269 281 293 297 303 311 321 331 333 333 333 335 332 330 325 315 288 253 241 230 222 212 205 203 203 203 199 196 196 197 199
255 255 257 257 258 256 255 256 256 252 252 259 268 272 277 282 286 296 306 317 327 330 332 334 339 339 338 330 320 292 250 234 226 219 205 196 197 202 203 200 198 198 200 201
251 253 255 255 257 258 250 249 252 252 250 251 260 269 272 277 279 289 303 314 323 324 329 334 336 336 335 329 322 299 251 229 220 212 201 194 197 201 201 200 202 203 203 204
249 248 249 248 250 251 248 244 248 253 255 256 257 263 266 271 273 282 296 310 317 323 328 335 337 336 330 321 318 303 248 221 213 216 210 203 202 203 203 201 201 205 205 206
246 246 247 247 244 243 242 243 248 253 256 257 254 258 262 262 265 271 285 306 315 325 331 335 337 337 337 328 322 315 249 219 219 212 211 210 207 205 205 203 203 206 206 206
243 242 244 245 244 241 239 244 250 251 252 248 248 259 271 267 269 277 287 304 321 327 332 335 334 334 339 332 322 317 283 228 214 210 210 208 208 207 207 207 207 208 207 207
239 236 236 239 243 244 242 245 249 252 250 241 249 268 276 274 277 281 291 307 321 330 334 331 331 334 337 331 318 310 284 239 216 211 210 209 208 208 208 208 208 208 209 210
235 230 226 227 229 234 239 243 246 248 248 244 248 260 268 279 286 289 288 292 311 325 322 325 328 330 334 336 323 304 271 248 227 216 211 209 206 208 210 209 210 211 212 214
230 226 223 222 222 227 234 239 242 244 248 249 247 255 271 280 290 295 290 287 289 305 312 313 318 321 327 331 325 305 274 247 234 222 218 213 210 212 213 213 215 216 215 217
226 223 217 219 223 227 231 233 236 242 246 250 251 253 262 276 279 284 291 289 277 294 300 302 305 307 320 326 323 305 280 252 241 235 229 223 218 217 218 217 219 219 219 219
226 223 217 216 219 224 229 234 238 242 246 248 253 257 259 270 270 274 284 283 287 285 290 291 302 304 307 314 316 304 280 263 254 244 234 228 223 222 221 221 222 222 221 220
225 226 221 215 218 222 225 230 237 243 245 245 250 254 256 262 269 272 276 278 282 282 285 286 299 297 295 298 298 293 281 269 259 247 236 232 227 225 223 223 224 226 226 222
224 230 227 223 221 224 227 230 236 242 245 247 248 251 253 258 264 269 268 271 276 278 273 278 288 295 294 291 286 284 277 271 264 251 244 241 237 235 231 228 226 227 229 227
225 229 229 228 226 227 231 235 239 241 244 247 249 250 252 254 258 265 269 274 274 273 277 280 289 289 289 289 284 281 276 271 266 258 252 245 242 243 239 234 231 230 232 233
228 229 229 231 230 231 235 239 241 242 244 247 248 249 252 257 260 264 269 274 274 274 278 278 282 284 284 282 283 278 272 267 263 260 253 246 244 245 243 236 234 235 237 238
231 232 233 235 237 237 238 240 242 244 245 247 249 251 255 259 263 265 269 274 278 280 280 276 280 281 277 274 271 272 270 267 266 262 258 253 251 250 248 241 241 241 241 242
233 235 236 238 240 240 240 241 243 246 248 248 250 253 256 259 264 264 267 273 277 279 277 275 277 277 274 271 267 265 265 264 264 264 263 258 257 255 254 252 249 250 247 245
234 235 236 237 239 239 239 241 244 247 248 249 251 254 258 258 261 264 267 272 276 276 275 275 274 270 268 267 265 262 264 264 264 264 265 262 261 261 260 257 254 256 250 250
233 236 239 240 240 240 238 240 243 245 248 249 251 256 258 259 260 262 266 269 271 273 274 273 273 271 269 266 264 263 267 263 262 264 264 260 258 259 260 258 259 259 257 256
234 236 239 241 242 242 240 240 242 244 246 250 252 255 257 260 262 263 264 265 268 270 271 271 271 268 267 267 266 264 264 262 260 262 261 260 262 260 261 260 260 259 258 258
232 235 237 239 242 244 243 242 243 246 247 250 253 255 257 260 262 264 264 265 266 267 269 271 268 264 264 264 263 263 263 262 258 259 261 263 265 266 267 266 263 260 261 259
232 234 238 240 242 244 244 244 245 246 248 250 253 256 256 259 260 263 263 264 264 264 266 268 266 261 260 260 260 260 262 260 257 260 263 265 269 270 268 268 266 267 268 268
233 236 238 240 242 243 244 244 245 247 251 252 255 255 255 258 261 264 263 261 262 264 265 265 263 260 258 257 256 258 261 260 260 260 262 265 270 274 274 272 268 269 272 274
232 234 236 238 238 242 245 246 249 251 253 255 256 256 256 258 260 262 261 261 261 263 260 259 257 256 257 258 257 256 256 258 261 262 263 267 271 274 276 275 271 273 276 276
230 234 236 239 240 243 246 249 251 251 252 253 255 256 256 258 260 259 259 259 260 259 257 256 256 257 257 257 257 256 257 259 261 262 265 268 271 274 276 276 275 276 276 277
Height
5879 5881 5881 5881 5880 5880 5880 5880 5880 5880 5879 5879 5878 5877 5877 5877 5877 5876 5875 5873 5871 5869 5866 5862 5859 5855 5853 5851 5849 5848 5848 5849 5851 5853 5855 5857 5859 5862 5865 5868 5871 5874 5876 5878
5875 5877 5876 5875 5876 5876 5876 5876 5877 5877 5876 5876 5875 5875 5875 5875 5875 5874 5873 5871 5869 5866 5863 5861 5858 5855 5852 5850 5849 5848 5848 5848 5849 5851 5853 5855 5858 5861 5864 5867 5869 5872 5875 5877
5870 5872 5870 5871 5871 5872 5872 5873 5873 5873 5873 5873 5872 5872 5872 5872 5871 5871 5870 5869 5867 5864 5862 5859 5856 5853 5851 5850 5848 5847 5846 5847 5848 5850 5851 5854 5856 5859 5862 5865 5868 5871 5873 5875
5864 5866 5865 5866 5867 5867 5868 5868 5869 5869 5870 5870 5871 5870 5871 5869 5869 5868 5868 5866 5864 5862 5860 5857 5855 5852 5850 5849 5847 5845 5845 5845 5847 5848 5850 5853 5855 5858 5861 5864 5866 5869 5871 5874
5859 5860 5860 5861 5863 5863 5864 5864 5865 5865 5866 5867 5867 5867 5868 5867 5866 5867 5866 5864 5862 5860 5858 5856 5853 5851 5849 5847 5845 5844 5843 5843 5844 5847 5849 5851 5854 5856 5859 5862 5864 5867 5869 5872
5852 5853 5854 5856 5857 5858 5859 5860 5861 5861 5862 5863 5864 5864 5864 5863 5863 5863 5863 5861 5859 5857 5856 5854 5852 5850 5847 5845 5844 5843 5841 5843 5845 5846 5847 5849 5852 5854 5857 5860 5862 5865 5867 5870
5845 5847 5849 5851 5852 5853 5854 5856 5857 5857 5858 5860 5860 5859 5861 5860 5859 5859 5859 5858 5856 5855 5853 5852 5850 5849 5847 5845 5844 5843 5842 5843 5844 5845 5846 5848 5850 5852 5855 5857 5860 5862 5865 5867
5838 5842 5844 5846 5847 5848 5849 5851 5853 5854 5855 5856 5856 5856 5857 5856 5855 5854 5854 5854 5854 5852 5851 5850 5849 5847 5846 5844 5843 5842 5842 5842 5843 5844 5845 5846 5848 5850 5853 5855 5857 5860 5862 5864
5833 5837 5839 5840 5842 5844 5845 5846 5848 5850 5850 5851 5852 5852 5852 5852 5852 5852 5851 5851 5850 5850 5849 5848 5847 5846 5844 5843 5842 5842 5841 5841 5842 5842 5843 5844 5846 5848 5850 5852 5855 5857 5859 5862
5827 5831 5834 5836 5837 5839 5841 5843 5844 5845 5846 5847 5848 5849 5849 5849 5849 5849 5849 5848 5848 5847 5847 5846 5846 5845 5843 5842 5841 5841 5840 5840 5840 5840 5842 5843 5845 5846 5848 5850 5851 5853 5856 5858
5822 5825 5829 5831 5833 5835 5837 5838 5839 5840 5842 5843 5844 5847 5846 5846 5846 5846 5845 5845 5846 5845 5845 5844 5844 5843 5842 5841 5840 5839 5839 5839 5839 5839 5840 5841 5842 5844 5845 5846 5848 5850 5852 5855
5816 5820 5823 5826 5829 5830 5832 5833 5835 5836 5838 5839 5840 5844 5842 5843 5842 5842 5842 5843 5843 5843 5843 5842 5841 5841 5840 5839 5839 5838 5838 5838 5838 5838 5839 5839 5840 5841 5842 5844 5845 5847 5849 5851
5810 5814 5818 5821 5825 5826 5827 5828 5830 5832 5833 5834 5835 5840 5838 5838 5838 5838 5839 5839 5840 5840 5840 5839 5839 5839 5838 5838 5837 5837 5837 5836 5836 5836 5837 5838 5838 5839 5840 5841 5842 5844 5846 5848
5805 5808 5812 5816 5819 5820 5822 5824 5825 5827 5829 5830 5831 5832 5833 5833 5834 5835 5835 5836 5836 5837 5837 5837 5836 5836 5836 5836 5836 5835 5835 5834 5834 5834 5835 5836 5836 5837 5837 5838 5839 5841 5843 5844
5798 5802 5806 5810 5813 5815 5817 5820 5821 5822 5823 5825 5826 5826 5827 5828 5829 5830 5831 5831 5832 5833 5834 5833 5834 5834 5833 5833 5833 5833 5833 5832 5832 5832 5833 5833 5834 5834 5835 5836 5837 5838 5840 5841
5792 5796 5800 5803 5806 5809 5812 5814 5816 5817 5818 5819 5820 5821 5822 5823 5824 5824 5826 5827 5828 5828 5829 5829 5830 5830 5829 5829 5829 5830 5830 5830 5830 5830 5830 5830 5831 5831 5832 5832 5834 5835 5836 5837
5786 5790 5794 5797 5799 5803 5806 5808 5809 5810 5811 5813 5814 5816 5817 5818 5819 5820 5821 5822 5822 5823 5824 5825 5825 5825 5825 5825 5826 5826 5827 5827 5827 5827 5827 5828 5828 5828 5828 5828 5830 5831 5832 5833
5779 5783 5787 5790 5794 5795 5800 5800 5801 5802 5804 5806 5808 5810 5811 5813 5814 5815 5815 5816 5817 5818 5818 5819 5820 5820 5820 5821 5821 5822 5823 5823 5824 5824 5824 5824 5825 5825 5825 5825 5826 5827 5828 5829
5771 5775 5779 5782 5784 5787 5791 5792 5794 5796 5797 5800 5802 5804 5805 5806 5808 5809 5809 5810 5811 5812 5812 5813 5813 5814 5814 5815 5816 5816 5818 5819 5819 5820 5820 5820 5821 5821 5821 5821 5822 5822 5822 5823
5763 5767 5771 5774 5777 5779 5784 5786 5786 5789 5790 5792 5795 5797 5798 5800 5801 5803 5804 5804 5805 5805 5806 5806 5806 5807 5808 5809 5810 5811 5812 5813 5814 5815 5815 5815 5816 5816 5816 5816 5816 5816 5817 5818
5755 5759 5762 5765 5768 5771 5775 5777 5780 5783 5784 5786 5787 5789 5791 5792 5793 5795 5796 5798 5798 5799 5799 5798 5799 5800 5802 5803 5805 5806 5806 5807 5808 5809 5809 5810 5810 5811 5810 5810 5811 5811 5811 5812
5748 5751 5755 5758 5761 5765 5768 5770 5773 5774 5777 5779 5780 5782 5783 5784 5785 5786 5788 5789 5791 5792 5792 5792 5793 5793 5795 5797 5798 5799 5800 5801 5801 5802 5803 5804 5804 5804 5804 5805 5805 5805 5805 5805
5741 5745 5748 5752 5756 5757 5760 5762 5764 5766 5769 5771 5773 5774 5776 5777 5778 5779 5781 5782 5783 5784 5785 5785 5786 5787 5788 5790 5792 5793 5794 5795 5795 5796 5797 5798 5798 5798 5799 5798 5798 5799 5799 5799
5735 5738 5742 5744 5747 5749 5752 5755 5757 5759 5762 5764 5766 5767 5769 5770 5771 5772 5772 5774 5775 5777 5778 5778 5778 5780 5781 5783 5785 5786 5788 5789 5790 5790 5791 5792 5792 5792 5792 5792 5791 5792 5792 5791
5728 5732 5734 5737 5740 5742 5745 5748 5750 5752 5755 5756 5758 5760 5761 5762 5763 5764 5765 5766 5768 5769 5771 5772 5772 5773 5775 5776 5777 5779 5781 5783 5784 5784 5785 5785 5785 5785 5785 5784 5784 5784 5784 5784
5722 5725 5728 5731 5734 5736 5739 5741 5743 5745 5747 5749 5751 5752 5753 5755 5756 5757 5758 5759 5761 5762 5764 5765 5766 5767 5769 5770 5772 5773 5775 5776 5778 5778 5779 5779 5779 5779 5778 5778 5777 5777 5777 5776